Location: Dead Woman Crossing
(43.5369°N, 106.3228°W)
Time: 12:38:32
(UTC+00:00)

ZACube-1 - Pass Details

Date: 29 June 2022
Orbit: 582 x 661 km, 97.6° (Epoch: 14 August)

Event Time Altitude Azimuth Distance (km) Brightness Sun altitude
Rises 09:42:42 0° 33° (NNE) 2,948 ? -14.5°
Reaches altitude 10° 09:46:05 10° 61° (ENE) 2,049 ? -14.1°
Maximum altitude 09:48:13 13° 90° (E) 1,846 ? -13.9°
Drops below altitude 10° 09:50:21 10° 118° (ESE) 2,058 ? -13.6°
Sets 09:53:44 0° 146° (SE) 2,974 ? -13.3°
